DW0427 Weather Reports


time (UTC)temp
C
wind
direction
speed
KPH
gust
KPH
rain 1hr
cm
rain 24hr
cm
rain mn
cm
humidity
%
barometer
mb
20260506153607 13 46 6.4 11.3 0.00 0.00 0.00 53 1012.8
20260506153407 13 46 6.4 9.7 0.00 0.00 0.00 53 1012.8
20260506153207 13 45 8.0 11.3 0.00 0.00 0.00 53 1012.8
20260506153007 13 46 8.0 11.3 0.00 0.00 0.00 53 1013.0
20260506152807 13 46 8.0 14.5 0.00 0.00 0.00 52 1012.9
20260506152407 13 45 6.4 14.5 0.00 0.00 0.00 52 1012.7
20260506152207 14 45 4.8 14.5 0.00 0.00 0.00 52 1012.8
20260506152007 14 45 4.8 14.5 0.00 0.00 0.00 51 1012.7
20260506151807 14 45 3.2 14.5 0.00 0.00 0.00 51 1012.7
20260506151607 14 45 3.2 12.9 0.00 0.00 0.00 51 1012.7
20260506151407 14 45 4.8 9.7 0.00 0.00 0.00 51 1012.8
20260506151207 14 45 4.8 8.0 0.00 0.00 0.00 51 1012.8
20260506151007 14 45 6.4 8.0 0.00 0.00 0.00 51 1012.8
20260506150807 14 45 6.4 9.7 0.00 0.00 0.00 51 1012.7
20260506150608 14 45 8.0 14.5 0.00 0.00 0.00 52 1012.7
20260506150407 14 45 8.0 14.5 0.00 0.00 0.00 51 1012.8
20260506150007 14 45 8.0 17.7 0.00 0.00 0.00 50 1012.8
20260506145807 14 46 8.0 17.7 0.00 0.00 0.00 51 1013.0
20260506145607 14 45 8.0 17.7 0.00 0.00 0.00 52 1013.0
20260506145407 14 46 6.4 17.7 0.00 0.00 0.00 52 1013.1
20260506145207 15 46 6.4 17.7 0.00 0.00 0.00 51 1013.0
20260506145008 15 46 6.4 17.7 0.00 0.00 0.00 50 1012.8
20260506144807 15 45 6.4 17.7 0.00 0.00 0.00 50 1013.0
20260506144607 15 45 6.4 17.7 0.00 0.00 0.00 48 1012.9
20260506144407 15 45 6.4 14.5 0.00 0.00 0.00 47 1012.9
20260506144007 15 45 4.8 14.5 0.00 0.00 0.00 45 1013.0
20260506143807 15 46 4.8 14.5 0.00 0.00 0.00 45 1012.9
20260506143607 15 45 4.8 14.5 0.00 0.00 0.00 46 1012.9
20260506143207 15 45 6.4 14.5 0.00 0.00 0.00 49 1013.0
20260506142807 15 46 6.4 11.3 0.00 0.00 0.00 52 1013.1
20260506142607 15 46 8.0 11.3 0.00 0.00 0.00 49 1013.1
20260506142407 15 45 8.0 16.1 0.00 0.00 0.00 47 1013.0
20260506142207 15 46 8.0 17.7 0.00 0.00 0.00 45 1013.0
20260506142007 15 46 8.0 17.7 0.00 0.00 0.00 48 1013.0
20260506141807 15 45 8.0 17.7 0.00 0.00 0.00 48 1013.1
20260506141407 15 46 8.0 19.3 0.00 0.00 0.00 50 1013.1
20260506141207 14 45 9.7 19.3 0.00 0.00 0.00 50 1013.1
20260506140808 14 45 9.7 19.3 0.00 0.00 0.00 51 1013.2
20260506140608 14 46 8.0 19.3 0.00 0.00 0.00 50 1013.2
20260506140408 15 45 8.0 17.7 0.00 0.00 0.00 49 1013.2
20260506140208 15 45 6.4 17.7 0.00 0.00 0.00 48 1013.1
20260506140008 15 46 6.4 17.7 0.00 0.00 0.00 48 1013.2
20260506135808 15 45 6.4 17.7 0.00 0.00 0.00 50 1013.2
20260506135408 15 46 6.4 11.3 0.00 0.00 0.00 50 1013.2
20260506135208 15 46 6.4 11.3 0.00 0.00 0.00 50 1013.1
20260506135008 15 46 6.4 12.9 0.00 0.00 0.00 54 1013.2
20260506134608 15 46 6.4 12.9 0.00 0.00 0.00 54 1013.2
20260506134408 15 46 6.4 14.5 0.00 0.00 0.00 52 1013.3
20260506134208 15 45 6.4 16.1 0.00 0.00 0.00 53 1013.2
20260506134008 15 45 6.4 16.1 0.00 0.00 0.00 52 1013.3
20260506133808 15 45 4.8 16.1 0.00 0.00 0.00 53 1013.3
20260506133608 14 45 4.8 16.1 0.00 0.00 0.00 54 1013.4
20260506133408 14 46 4.8 16.1 0.00 0.00 0.00 53 1013.4
20260506133208 14 45 6.4 12.9 0.00 0.00 0.00 52 1013.5
20260506133008 14 45 6.4 12.9 0.00 0.00 0.00 53 1013.4
20260506132808 14 46 6.4 12.9 0.00 0.00 0.00 51 1013.5
20260506132608 15 45 6.4 14.5 0.00 0.00 0.00 50 1013.5
20260506132408 15 46 6.4 14.5 0.00 0.00 0.00 49 1013.5
20260506132208 15 45 8.0 16.1 0.00 0.00 0.00 52 1013.6
20260506131808 14 45 6.4 16.1 0.00 0.00 0.00 53 1013.5
20260506131608 14 45 6.4 16.1 0.00 0.00 0.00 55 1013.6
20260506131408 14 45 6.4 16.1 0.00 0.00 0.00 53 1013.5
20260506131208 14 45 4.8 16.1 0.00 0.00 0.00 54 1013.6
20260506131008 13 46 4.8 14.5 0.00 0.00 0.00 51 1013.5
20260506130808 13 46 4.8 14.5 0.00 0.00 0.00 55 1013.5
20260506130607 13 45 3.2 14.5 0.00 0.00 0.00 53 1013.5
20260506130208 13 45 3.2 9.7 0.00 0.00 0.00 54 1013.5
20260506130008 13 45 3.2 8.0 0.00 0.00 0.00 55 1013.5
20260506125808 13 45 4.8 9.7 0.00 0.00 0.00 53 1013.5
20260506125608 13 46 4.8 9.7 0.00 0.00 0.00 54 1013.5
20260506125408 13 46 4.8 9.7 0.00 0.00 0.00 54 1013.5
20260506125208 13 45 4.8 9.7 0.00 0.00 0.00 55 1013.6
20260506125008 13 46 6.4 9.7 0.00 0.00 0.00 56 1013.6
20260506124808 13 45 6.4 9.7 0.00 0.00 0.00 55 1013.6
20260506124408 13 46 6.4 9.7 0.00 0.00 0.00 55 1013.7
20260506124008 13 46 6.4 11.3 0.00 0.00 0.00 57 1013.8
20260506123808 13 46 6.4 12.9 0.00 0.00 0.00 58 1013.9
20260506123608 13 46 6.4 12.9 0.00 0.00 0.00 60 1013.8
20260506123408 13 46 4.8 12.9 0.00 0.00 0.00 59 1013.8
20260506123208 13 46 4.8 12.9 0.00 0.00 0.00 59 1013.8
20260506123008 13 46 3.2 12.9 0.00 0.00 0.00 58 1013.9
20260506122808 13 45 3.2 12.9 0.00 0.00 0.00 57 1013.7
20260506122608 13 46 3.2 11.3 0.00 0.00 0.00 57 1013.7
20260506122423 13 45 3.2 11.3 0.00 0.00 0.00 56 1013.7
20260506122208 13 45 3.2 9.7 0.00 0.00 0.00 55 1013.7
20260506122008 13 45 4.8 9.7 0.00 0.00 0.00 54 1013.7
20260506121808 13 45 4.8 8.0 0.00 0.00 0.00 53 1013.6
20260506121608 13 45 4.8 9.7 0.00 0.00 0.00 56 1013.7
20260506121408 13 46 4.8 9.7 0.00 0.00 0.00 54 1013.8
20260506121209 13 45 6.4 11.3 0.00 0.00 0.00 54 1013.8
20260506121008 13 46 6.4 11.3 0.00 0.00 0.00 55 1013.8
20260506120808 13 46 6.4 11.3 0.00 0.00 0.00 55 1013.9
20260506120608 13 46 6.4 14.5 0.00 0.00 0.00 53 1013.8
20260506120208 13 45 4.8 14.5 0.00 0.00 0.00 52 1013.7
20260506115808 13 46 3.2 14.5 0.00 0.00 0.00 52 1013.9
20260506115608 14 45 3.2 9.7 0.00 0.00 0.00 52 1013.9
20260506115408 13 45 3.2 9.7 0.00 0.00 0.00 55 1014.1
20260506115008 13 45 3.2 9.7 0.00 0.00 0.00 60 1014.0
20260506114608 12 45 3.2 9.7 0.00 0.00 0.00 55 1013.8
20260506114409 12 45 3.2 6.4 0.00 0.00 0.00 55 1014.1
20260506114208 12 45 3.2 6.4 0.00 0.00 0.00 56 1014.2
20260506114008 12 45 3.2 8.0 0.00 0.00 0.00 56 1014.1
20260506113608 12 46 4.8 8.0 0.00 0.00 0.00 55 1013.9
20260506113208 12 46 4.8 11.3 0.00 0.00 0.00 56 1014.2
20260506113008 13 45 6.4 11.3 0.00 0.00 0.00 55 1014.2
20260506112809 13 46 6.4 11.3 0.00 0.00 0.00 55 1014.2
20260506112608 13 46 6.4 11.3 0.00 0.00 0.00 48 1014.2
20260506112408 13 45 6.4 17.7 0.00 0.00 0.00 49 1014.1
20260506112208 13 46 4.8 17.7 0.00 0.00 0.00 50 1014.2
20260506111608 14 45 3.2 17.7 0.00 0.00 0.00 56 1014.2
20260506111408 14 45 1.6 8.0 0.00 0.00 0.00 56 1014.1
20260506111208 14 45 1.6 8.0 0.00 0.00 0.00 54 1014.1
20260506111008 13 45 1.6 6.4 0.00 0.00 0.00 53 1014.1
20260506110809 13 45 1.6 4.8 0.00 0.00 0.00 56 1014.4
20260506110208 12 45 4.8 6.4 0.00 0.00 0.00 52 1014.4
20260506110008 12 45 4.8 6.4 0.00 0.00 0.00 52 1014.4
20260506105808 12 46 4.8 8.0 0.00 0.00 0.00 51 1014.4
20260506105408 12 45 4.8 8.0 0.00 0.00 0.00 54 1014.4
20260506105208 13 45 3.2 8.0 0.00 0.00 0.00 54 1014.4
20260506105008 13 45 3.2 8.0 0.00 0.00 0.00 54 1014.4
20260506104608 13 45 4.8 8.0 0.00 0.00 0.00 54 1014.4
20260506104208 13 45 4.8 8.0 0.00 0.00 0.00 55 1014.4
20260506104008 13 46 4.8 11.3 0.00 0.00 0.00 57 1014.5
20260506103808 13 46 4.8 12.9 0.00 0.00 0.00 54 1014.5
20260506103408 13 45 3.2 12.9 0.00 0.00 0.00 61 1014.6
20260506103008 13 46 3.2 12.9 0.00 0.00 0.00 57 1014.5
20260506102808 12 45 3.2 9.7 0.00 0.00 0.00 59 1014.5
20260506102608 12 45 3.2 6.4 0.00 0.00 0.00 59 1014.7
20260506102208 12 46 3.2 8.0 0.00 0.00 0.00 58 1014.7
20260506102008 12 45 3.2 8.0 0.00 0.00 0.00 58 1014.8
20260506101808 12 45 3.2 8.0 0.00 0.00 0.00 57 1014.7
20260506101608 12 45 3.2 8.0 0.00 0.00 0.00 58 1014.7
20260506101408 12 45 3.2 6.4 0.00 0.00 0.00 59 1014.7
20260506101208 12 45 3.2 6.4 0.00 0.00 0.00 59 1014.7
20260506101008 12 45 3.2 6.4 0.00 0.00 0.00 60 1014.9
20260506100808 12 45 3.2 6.4 0.00 0.00 0.00 59 1014.9
20260506100608 12 45 3.2 6.4 0.00 0.00 0.00 60 1014.9
20260506100408 12 45 3.2 6.4 0.00 0.00 0.00 62 1015.0
20260506100208 12 45 3.2 6.4 0.00 0.00 0.00 65 1014.9
20260506100008 12 45 3.2 6.4 0.00 0.00 0.00 61 1015.0
20260506095808 12 45 3.2 8.0 0.00 0.00 0.00 60 1014.9
20260506095408 12 45 3.2 8.0 0.00 0.00 0.00 60 1015.0
20260506095208 12 45 4.8 8.0 0.00 0.00 0.00 62 1015.1
20260506094808 11 45 4.8 9.7 0.00 0.00 0.00 64 1014.9
20260506094608 11 46 4.8 11.3 0.00 0.00 0.00 61 1014.9
20260506094408 11 46 4.8 11.3 0.00 0.00 0.00 64 1014.8
20260506094208 11 46 3.2 11.3 0.00 0.00 0.00 65 1014.9
20260506094008 11 46 3.2 11.3 0.00 0.00 0.00 63 1015.0
20260506093808 11 46 3.2 11.3 0.00 0.00 0.00 62 1014.9
20260506093608 11 46 3.2 8.0 0.00 0.00 0.00 62 1015.0
20260506093408 11 46 3.2 8.0 0.00 0.00 0.00 64 1015.0
20260506093208 11 45 3.2 8.0 0.00 0.00 0.00 62 1015.1
20260506093008 11 45 3.2 8.0 0.00 0.00 0.00 61 1015.1
20260506092808 11 45 3.2 8.0 0.00 0.00 0.00 61 1015.2
20260506092608 11 45 3.2 8.0 0.00 0.00 0.00 64 1015.1
20260506092208 11 45 3.2 8.0 0.00 0.00 0.00 65 1015.1
20260506092008 10 45 4.8 8.0 0.00 0.00 0.00 66 1015.2
20260506091808 10 45 4.8 8.0 0.00 0.00 0.00 65 1015.2
20260506091608 10 45 4.8 8.0 0.00 0.00 0.00 63 1015.2
20260506091408 10 46 4.8 9.7 0.00 0.00 0.00 64 1015.1
20260506091208 10 46 4.8 9.7 0.00 0.00 0.00 64 1015.0
20260506091008 10 46 4.8 9.7 0.00 0.00 0.00 64 1015.1
20260506090808 10 45 3.2 9.7 0.00 0.00 0.00 64 1015.1
20260506090608 10 45 3.2 9.7 0.00 0.00 0.00 65 1015.0
20260506090010 10 45 4.8 6.4 0.00 0.00 0.00 66 1015.1
20260506085808 10 45 4.8 9.7 0.00 0.00 0.00 66 1015.1
20260506085608 10 46 4.8 9.7 0.00 0.00 0.00 65 1015.2
20260506085408 10 46 4.8 9.7 0.00 0.00 0.00 65 1015.1
20260506085208 10 46 3.2 9.7 0.00 0.00 0.00 64 1015.1
20260506085008 10 45 3.2 9.7 0.00 0.00 0.00 64 1015.2
20260506084808 10 45 1.6 8.0 0.00 0.00 0.00 64 1015.2
20260506084609 10 45 1.6 8.0 0.00 0.00 0.00 64 1015.2
20260506084408 10 45 1.6 6.4 0.00 0.00 0.00 67 1015.2
20260506084208 10 45 3.2 6.4 0.00 0.00 0.00 67 1015.2
20260506084008 10 45 3.2 6.4 0.00 0.00 0.00 68 1015.2
20260506083808 10 45 3.2 6.4 0.00 0.00 0.00 67 1015.3
20260506083608 9 45 3.2 6.4 0.00 0.00 0.00 66 1015.4
20260506083408 9 45 3.2 6.4 0.00 0.00 0.00 66 1015.4
20260506083208 9 45 1.6 6.4 0.00 0.00 0.00 66 1015.3
20260506083008 9 45 1.6 6.4 0.00 0.00 0.00 67 1015.4
20260506082808 9 45 1.6 6.4 0.00 0.00 0.00 66 1015.5
20260506082608 9 45 3.2 6.4 0.00 0.00 0.00 68 1015.5
20260506082408 9 45 3.2 6.4 0.00 0.00 0.00 69 1015.3
20260506082208 8 45 3.2 6.4 0.00 0.00 0.00 68 1015.3
20260506082009 8 45 3.2 8.0 0.00 0.00 0.00 69 1015.3
20260506081808 8 45 3.2 8.0 0.00 0.00 0.00 67 1015.3
20260506081608 8 46 3.2 8.0 0.00 0.00 0.00 67 1015.5
20260506081408 8 45 3.2 8.0 0.00 0.00 0.00 68 1015.5
20260506081208 8 45 3.2 8.0 0.00 0.00 0.00 68 1015.4
20260506080808 8 45 3.2 8.0 0.00 0.00 0.00 70 1015.4
20260506080408 8 46 3.2 8.0 0.00 0.00 0.00 70 1015.4
20260506080208 7 45 3.2 8.0 0.00 0.00 0.00 70 1015.4
20260506073408 6 46 4.8 8.0 0.00 0.00 0.00 73 1015.3
20260506073208 6 46 4.8 8.0 0.00 0.00 0.00 72 1015.3
20260506072808 6 45 4.8 8.0 0.00 0.00 0.00 72 1015.4
20260506072608 6 45 4.8 8.0 0.00 0.00 0.00 74 1015.4
20260506072408 6 45 4.8 9.7 0.00 0.00 0.00 73 1015.3
20260506072008 6 46 3.2 9.7 0.00 0.00 0.00 72 1015.3
20260506071808 6 45 3.2 9.7 0.00 0.00 0.00 73 1015.3
20260506071608 6 45 3.2 9.7 0.00 0.00 0.00 73 1015.4
20260506071408 6 45 3.2 8.0 0.00 0.00 0.00 74 1015.3
20260506071208 6 45 3.2 6.4 0.00 0.00 0.00 74 1015.3
20260506071008 6 45 4.8 6.4 0.00 0.00 0.00 74 1015.3
20260506070808 6 45 4.8 6.4 0.00 0.00 0.00 75 1015.4
20260506070408 6 46 3.2 9.7 0.00 0.00 0.00 75 1015.4
20260506070208 6 46 3.2 9.7 0.00 0.00 0.00 74 1015.3
20260506062408 5 45 1.6 4.8 0.00 0.00 0.00 77 1015.2
20260506062208 5 45 1.6 6.4 0.00 0.00 0.00 77 1015.2
20260506062009 5 45 3.2 6.4 0.00 0.00 0.00 78 1015.2
20260506061808 5 45 3.2 6.4 0.00 0.00 0.00 78 1015.2
20260506061608 5 45 3.2 6.4 0.00 0.00 0.00 78 1015.2
20260506061408 5 45 3.2 6.4 0.00 0.00 0.00 78 1015.2
20260506061208 5 45 4.8 6.4 0.00 0.00 0.00 78 1015.1
20260506061008 5 45 4.8 6.4 0.00 0.00 0.00 79 1015.2
20260506060808 5 45 4.8 6.4 0.00 0.00 0.00 79 1015.2
20260506060608 5 45 4.8 6.4 0.00 0.00 0.00 79 1015.2
20260506060207 5 45 4.8 8.0 0.00 0.00 0.00 79 1015.0
20260506051408 4 45 4.8 6.4 0.00 0.00 0.00 79 1014.8
20260506051208 4 45 3.2 6.4 0.00 0.00 0.00 79 1014.8
20260506051009 4 45 3.2 6.4 0.00 0.00 0.00 79 1014.8
20260506050808 5 45 3.2 6.4 0.00 0.00 0.00 79 1014.8
20260506050408 5 45 1.6 6.4 0.00 0.00 0.00 79 1014.8
20260506050208 5 45 1.6 6.4 0.00 0.00 0.00 78 1014.9
20260506045008 5 45 4.8 8.0 0.00 0.00 0.00 78 1014.8
20260506044808 5 45 4.8 8.0 0.00 0.00 0.00 78 1014.8
20260506044608 5 45 4.8 8.0 0.00 0.00 0.00 78 1014.8
20260506044408 5 45 3.2 8.0 0.00 0.00 0.00 78 1014.8
20260506044009 5 45 1.6 8.0 0.00 0.00 0.00 78 1014.8
20260506043808 5 45 1.6 8.0 0.00 0.00 0.00 78 1014.8
20260506043407 5 45 1.6 6.4 0.00 0.00 0.00 78 1014.9
20260506043008 5 45 1.6 6.4 0.00 0.00 0.00 78 1014.9
20260506042808 5 45 1.6 6.4 0.00 0.00 0.00 78 1014.9
20260506042608 5 45 1.6 6.4 0.00 0.00 0.00 77 1014.9
20260506042408 5 45 1.6 4.8 0.00 0.00 0.00 77 1014.9
20260506042208 5 45 1.6 4.8 0.00 0.00 0.00 77 1015.0
20260506042007 5 45 1.6 4.8 0.00 0.00 0.00 77 1015.0
20260506041808 5 45 3.2 4.8 0.00 0.00 0.00 77 1014.9
20260506041608 5 45 3.2 4.8 0.00 0.00 0.00 77 1015.0
20260506041408 5 45 3.2 4.8 0.00 0.00 0.00 77 1015.0
20260506041208 5 45 3.2 4.8 0.00 0.00 0.00 76 1015.0
20260506041008 5 45 1.6 4.8 0.00 0.00 0.00 77 1015.0
20260506040808 5 45 1.6 4.8 0.00 0.00 0.00 76 1015.1
20260506040607 5 45 1.6 4.8 0.00 0.00 0.00 76 1015.1
20260506040205 5 45 0.0 4.8 0.00 0.00 0.00 76 1015.1
20260506040007 5 45 0.0 3.2 0.00 0.00 0.00 76 1015.1
20260506035805 5 45 1.6 1.6 0.00 0.00 0.00 76 1015.1
20260506035608 5 45 1.6 3.2 0.00 0.00 0.00 76 1015.1
20260506035405 5 45 1.6 3.2 0.00 0.00 0.00 76 1015.1
20260506035209 5 45 1.6 3.2 0.00 0.00 0.00 76 1015.2
20260506034808 5 45 1.6 4.8 0.00 0.00 0.00 76 1015.2
20260506034605 5 45 1.6 4.8 0.00 0.00 0.00 76 1015.2
20260506034408 5 45 1.6 4.8 0.00 0.00 0.00 76 1015.2
20260506034205 5 45 1.6 4.8 0.00 0.00 0.00 76 1015.2
20260506034008 5 45 1.6 4.8 0.00 0.00 0.00 76 1015.2
20260506033809 5 45 1.6 3.2 0.00 0.00 0.00 76 1015.2
20260506033608 5 45 1.6 3.2 0.00 0.00 0.00 76 1015.3
20260506033408 5 45 3.2 4.8 0.00 0.00 0.00 76 1015.3
20260506033008 5 45 3.2 6.4 0.00 0.00 0.00 76 1015.3
20260506032808 5 45 1.6 6.4 0.00 0.00 0.00 76 1015.4
20260506032205 5 45 1.6 4.8 0.00 0.00 0.00 76 1015.4
20260506032006 5 45 1.6 3.2 0.00 0.00 0.00 76 1015.4
20260506031807 5 45 1.6 3.2 0.00 0.00 0.00 76 1015.4
20260506031605 5 45 1.6 4.8 0.00 0.00 0.00 76 1015.3
20260506031408 5 45 3.2 4.8 0.00 0.00 0.00 76 1015.3
20260506031205 5 45 3.2 4.8 0.00 0.00 0.00 76 1015.4
20260506031008 5 45 3.2 4.8 0.00 0.00 0.00 76 1015.4
20260506030805 5 45 3.2 4.8 0.00 0.00 0.00 75 1015.4
20260506030608 6 45 3.2 4.8 0.00 0.00 0.00 75 1015.3
20260506030405 6 45 3.2 4.8 0.00 0.00 0.00 75 1015.4
20260506030208 6 45 3.2 4.8 0.00 0.00 0.00 75 1015.4
20260506030005 6 45 1.6 4.8 0.00 0.00 0.00 75 1015.5
20260506025808 6 45 1.6 4.8 0.00 0.00 0.00 75 1015.5
20260506025408 6 45 1.6 4.8 0.00 0.00 0.00 75 1015.5
20260506024808 6 45 1.6 4.8 0.00 0.00 0.00 75 1015.5
20260506024608 6 45 1.6 4.8 0.00 0.00 0.00 75 1015.5
20260506024408 6 45 1.6 4.8 0.00 0.00 0.00 75 1015.5
20260506024208 6 45 1.6 4.8 0.00 0.00 0.00 75 1015.5
20260506024008 6 45 1.6 4.8 0.00 0.00 0.00 75 1015.5
20260506023808 6 45 3.2 6.4 0.00 0.00 0.00 75 1015.6
20260506023607 6 45 3.2 6.4 0.00 0.00 0.00 75 1015.6
20260506023208 6 45 3.2 6.4 0.00 0.00 0.00 74 1015.5
20260506023008 6 45 3.2 6.4 0.00 0.00 0.00 74 1015.5
20260506022808 6 45 3.2 6.4 0.00 0.00 0.00 74 1015.5
20260506022607 6 45 3.2 6.4 0.00 0.00 0.00 74 1015.5
20260506022208 6 45 4.8 6.4 0.00 0.00 0.00 74 1015.5
20260506022008 6 45 4.8 8.0 0.00 0.00 0.00 74 1015.5
20260506021808 6 45 4.8 8.0 0.00 0.00 0.00 74 1015.5
20260506021608 6 45 6.4 8.0 0.00 0.00 0.00 73 1015.5
20260506021408 6 45 6.4 8.0 0.00 0.00 0.00 73 1015.4
20260506021208 6 46 6.4 12.9 0.00 0.00 0.00 73 1015.4
20260506021008 6 46 6.4 12.9 0.00 0.00 0.00 73 1015.4
20260506020808 6 46 6.4 12.9 0.00 0.00 0.00 73 1015.4
20260506020608 6 46 4.8 12.9 0.00 0.00 0.00 73 1015.5
20260506020208 6 45 4.8 11.3 0.00 0.00 0.00 73 1015.5
20260506020008 6 45 4.8 9.7 0.00 0.00 0.00 72 1015.6
20260506015808 6 45 4.8 8.0 0.00 0.00 0.00 73 1015.7
20260506015608 6 46 6.4 8.0 0.00 0.00 0.00 73 1015.8
20260506015408 6 46 6.4 9.7 0.00 0.00 0.00 72 1015.8
20260506015208 6 46 8.0 12.9 0.00 0.00 0.00 73 1015.7
20260506015007 6 45 8.0 12.9 0.00 0.00 0.00 72 1015.8
20260506014808 6 46 8.0 12.9 0.00 0.00 0.00 72 1015.7
20260506014608 6 45 8.0 12.9 0.00 0.00 0.00 72 1015.7
20260506014408 6 46 8.0 12.9 0.00 0.00 0.00 72 1015.7
20260506014208 6 46 8.0 12.9 0.00 0.00 0.00 73 1015.6
20260506014009 6 46 8.0 12.9 0.00 0.00 0.00 73 1015.6
20260506013808 6 45 8.0 12.9 0.00 0.00 0.00 73 1015.7
20260506013608 6 45 6.4 12.9 0.00 0.00 0.00 72 1015.7
20260506013408 6 45 6.4 12.9 0.00 0.00 0.00 72 1015.7
20260506013008 7 45 4.8 12.9 0.00 0.00 0.00 72 1015.7
20260506012808 7 46 3.2 11.3 0.00 0.00 0.00 73 1015.7
20260506012608 7 46 3.2 11.3 0.00 0.00 0.00 73 1015.9
20260506012408 7 46 3.2 11.3 0.00 0.00 0.00 73 1015.8
20260506012207 7 46 3.2 9.7 0.00 0.00 0.00 73 1015.9
20260506011808 7 46 4.8 9.7 0.00 0.00 0.00 74 1015.9
20260506011608 7 46 4.8 9.7 0.00 0.00 0.00 73 1015.8
20260506011408 7 46 6.4 11.3 0.00 0.00 0.00 73 1016.0
20260506011007 7 45 6.4 11.3 0.00 0.00 0.00 73 1015.9
20260506010808 7 46 8.0 11.3 0.00 0.00 0.00 73 1015.9
20260506010608 7 45 8.0 11.3 0.00 0.00 0.00 73 1015.8
20260506010208 7 46 9.7 12.9 0.00 0.00 0.00 74 1015.8
20260506010008 7 45 9.7 12.9 0.00 0.00 0.00 74 1015.8
20260506005808 7 45 9.7 16.1 0.00 0.00 0.00 74 1015.8
20260506005622 7 46 9.7 16.1 0.00 0.00 0.00 74 1015.9
20260506005408 7 45 11.3 16.1 0.00 0.00 0.00 74 1015.9
20260506005208 7 46 11.3 16.1 0.00 0.00 0.00 74 1015.9
20260506005007 7 46 11.3 16.1 0.00 0.00 0.00 74 1015.9
20260506004608 7 45 9.7 20.9 0.00 0.00 0.00 75 1016.0
20260506004408 7 46 9.7 20.9 0.00 0.00 0.00 76 1015.9
20260506004008 7 46 8.0 20.9 0.00 0.00 0.00 76 1015.9
20260506003808 7 46 8.0 20.9 0.00 0.00 0.00 77 1015.9
20260506003608 7 46 8.0 17.7 0.00 0.00 0.00 79 1015.8
20260506003407 7 45 8.0 14.5 0.00 0.00 0.00 80 1015.8
20260506003208 7 46 6.4 14.5 0.00 0.00 0.00 81 1015.8
20260506002608 7 45 4.8 14.5 0.00 0.00 0.00 84 1015.8
20260506002408 7 45 4.8 14.5 0.00 0.00 0.00 84 1015.8
20260506002208 7 45 4.8 14.5 0.00 0.00 0.00 85 1015.8
20260506002007 7 45 3.2 14.5 0.00 0.00 0.00 86 1015.8
20260506001807 7 45 3.2 12.9 0.00 0.00 0.00 86 1015.8
20260506001607 7 45 3.2 6.4 0.00 0.00 0.00 86 1015.8
20260506001407 7 45 3.2 6.4 0.00 0.00 0.00 86 1015.8
20260506001208 6 45 1.6 6.4 0.00 0.00 0.00 86 1015.7
20260506001008 6 45 1.6 6.4 0.00 0.00 0.00 86 1015.7
20260506000608 6 45 1.6 4.8 0.00 0.00 0.00 86 1015.7
20260506000408 6 45 1.6 4.8 0.00 0.00 0.00 86 1015.7
20260506000208 6 45 1.6 4.8 0.00 0.00 0.00 86 1015.8
20260506000008 7 45 1.6 4.8 0.00 0.00 0.00 86 1015.7
20260505235808 7 45 1.6 4.8 0.00 0.00 0.00 86 1015.8
20260505235608 7 45 1.6 4.8 0.00 0.00 0.00 86 1015.7
20260505235408 7 45 1.6 3.2 0.00 0.00 0.00 86 1015.8
20260505235208 7 45 3.2 4.8 0.00 0.00 0.00 86 1015.7
20260505235008 7 45 3.2 4.8 0.00 0.00 0.00 86 1015.7
20260505234808 7 45 3.2 4.8 0.00 0.00 0.00 86 1015.7
20260505234608 7 45 1.6 4.8 0.00 0.00 0.00 86 1015.8
20260505234209 7 45 1.6 4.8 0.00 0.00 0.00 85 1015.7
20260505234008 7 45 1.6 4.8 0.00 0.00 0.00 85 1015.7
20260505233808 7 45 0.0 4.8 0.00 0.00 0.00 85 1015.8
20260505233607 7 45 0.0 4.8 0.00 0.00 0.00 85 1015.8
20260505233408 7 45 0.0 3.2 0.00 0.00 0.00 85 1015.8
20260505233208 7 45 0.0 3.2 0.00 0.00 0.00 85 1015.8
20260505232808 7 0 0.0 0.0 0.00 0.00 0.00 85 1015.7
20260505232608 7 0 0.0 0.0 0.00 0.00 0.00 85 1015.6
20260505232408 7 0 0.0 0.0 0.00 0.00 0.00 85 1015.6
20260505231808 7 0 0.0 0.0 0.00 0.00 0.00 85 1015.7
20260505231608 7 0 0.0 0.0 0.00 0.00 0.00 84 1015.8
20260505231207 7 0 0.0 0.0 0.00 0.00 0.00 84 1015.7
20260505231008 7 0 0.0 0.0 0.00 0.00 0.00 84 1015.9
20260505230808 7 0 0.0 0.0 0.00 0.00 0.00 84 1015.8
20260505230608 7 0 0.0 0.0 0.00 0.00 0.00 84 1015.9
20260505230407 7 0 0.0 0.0 0.00 0.00 0.00 84 1015.9
20260505230208 7 0 0.0 0.0 0.00 0.00 0.00 84 1015.7
20260505230008 7 0 0.0 0.0 0.00 0.00 0.00 84 1015.9
20260505225808 7 0 0.0 0.0 0.00 0.00 0.00 84 1015.8
20260505225608 7 0 0.0 0.0 0.00 0.00 0.00 84 1015.7
20260505225407 7 0 0.0 0.0 0.00 0.00 0.00 83 1015.8
20260505225207 7 0 0.0 0.0 0.00 0.00 0.00 83 1015.8
20260505224807 7 0 0.0 0.0 0.00 0.00 0.00 84 1015.9
20260505224607 7 0 0.0 0.0 0.00 0.00 0.00 84 1015.9
20260505224408 7 0 0.0 0.0 0.00 0.00 0.00 84 1016.0
20260505224208 7 0 0.0 0.0 0.00 0.00 0.00 83 1016.0
20260505224008 7 0 0.0 0.0 0.00 0.00 0.00 83 1016.0
20260505223808 7 0 0.0 0.0 0.00 0.00 0.00 83 1016.0
20260505223608 7 0 0.0 0.0 0.00 0.00 0.00 83 1016.0
20260505223408 7 0 0.0 0.0 0.00 0.00 0.00 83 1016.1
20260505223007 7 0 0.0 0.0 0.00 0.00 0.00 83 1016.1
20260505222807 7 0 0.0 0.0 0.00 0.00 0.00 83 1016.1
20260505222607 7 0 0.0 0.0 0.00 0.00 0.00 83 1016.1
20260505222407 7 0 0.0 0.0 0.00 0.00 0.00 82 1016.1
20260505222207 8 0 0.0 0.0 0.00 0.00 0.00 82 1016.1
20260505222007 8 0 0.0 0.0 0.00 0.00 0.00 82 1016.1
20260505221807 8 0 0.0 0.0 0.00 0.00 0.00 82 1016.0
20260505221607 8 0 0.0 0.0 0.00 0.00 0.00 82 1016.0
20260505221407 8 0 0.0 0.0 0.00 0.00 0.00 82 1016.1
20260505221208 8 0 0.0 0.0 0.00 0.00 0.00 82 1016.1
20260505221007 8 0 0.0 0.0 0.00 0.00 0.00 82 1016.1
20260505220807 8 0 0.0 0.0 0.00 0.00 0.00 82 1016.1
20260505220608 8 0 0.0 0.0 0.00 0.00 0.00 82 1016.1
20260505220407 8 0 0.0 0.0 0.00 0.00 0.00 82 1016.1
20260505220008 8 0 0.0 0.0 0.00 0.00 0.00 81 1016.1
20260505215807 8 0 0.0 0.0 0.00 0.00 0.00 81 1016.1
20260505215607 8 0 0.0 0.0 0.00 0.00 0.00 81 1016.1
20260505215407 8 0 0.0 0.0 0.00 0.00 0.00 81 1016.0
20260505215207 8 0 0.0 0.0 0.00 0.00 0.00 81 1016.0
20260505214808 8 0 0.0 0.0 0.00 0.00 0.00 80 1016.0
20260505214408 8 0 0.0 0.0 0.00 0.00 0.00 80 1016.0
20260505214008 8 0 0.0 0.0 0.00 0.00 0.00 80 1016.1
20260505213808 8 0 0.0 0.0 0.00 0.00 0.00 80 1016.1
20260505213208 8 45 1.6 3.2 0.00 0.00 0.00 79 1016.0
20260505213008 8 45 1.6 3.2 0.00 0.00 0.00 78 1016.1
20260505212808 8 45 1.6 3.2 0.00 0.00 0.00 78 1016.0
20260505212608 8 45 1.6 3.2 0.00 0.00 0.00 78 1016.0
20260505212208 8 45 1.6 3.2 0.00 0.00 0.00 78 1016.0
20260505212008 8 45 1.6 3.2 0.00 0.00 0.00 78 1016.1
20260505211808 9 45 1.6 3.2 0.00 0.00 0.00 78 1016.1
20260505211608 9 45 1.6 3.2 0.00 0.00 0.00 77 1016.0
20260505211408 9 45 1.6 3.2 0.00 0.00 0.00 77 1016.0
20260505211208 9 45 1.6 3.2 0.00 0.00 0.00 77 1016.0
20260505211008 9 45 1.6 3.2 0.00 0.00 0.00 77 1016.1
20260505210808 9 45 1.6 4.8 0.00 0.00 0.00 76 1016.2
20260505210408 9 45 1.6 4.8 0.00 0.00 0.00 76 1016.0
20260505210007 9 45 1.6 4.8 0.00 0.00 0.00 76 1016.1
20260505205808 9 45 1.6 3.2 0.00 0.00 0.00 76 1016.2
20260505205608 9 45 0.0 3.2 0.00 0.00 0.00 75 1016.2
20260505205408 9 45 0.0 3.2 0.00 0.00 0.00 75 1016.2
20260505204608 10 45 0.0 3.2 0.00 0.00 0.00 73 1016.2
20260505204408 10 45 1.6 3.2 0.00 0.00 0.00 73 1016.3
20260505204007 10 45 1.6 3.2 0.00 0.00 0.00 73 1016.1
20260505203807 10 45 1.6 3.2 0.00 0.00 0.00 73 1016.0
20260505203607 10 45 1.6 3.2 0.00 0.00 0.00 72 1016.0
20260505203407 10 45 1.6 3.2 0.00 0.00 0.00 72 1016.0
20260505203207 10 45 0.0 3.2 0.00 0.00 0.00 72 1016.0
20260505203007 10 45 0.0 3.2 0.00 0.00 0.00 72 1016.1
20260505202808 10 45 0.0 3.2 0.00 0.00 0.00 72 1016.1
20260505202608 10 45 0.0 1.6 0.00 0.00 0.00 72 1016.0
20260505202408 10 45 0.0 1.6 0.00 0.00 0.00 72 1016.1
20260505202208 10 45 1.6 1.6 0.00 0.00 0.00 72 1016.2
20260505202008 10 45 1.6 3.2 0.00 0.00 0.00 72 1016.1
20260505201608 10 45 1.6 3.2 0.00 0.00 0.00 72 1016.1
20260505201407 10 45 1.6 4.8 0.00 0.00 0.00 72 1016.0
20260505201007 10 45 1.6 4.8 0.00 0.00 0.00 72 1015.9
20260505200607 10 45 1.6 4.8 0.00 0.00 0.00 71 1015.9
20260505200407 10 45 1.6 3.2 0.00 0.00 0.00 71 1016.0
20260505200207 10 45 1.6 3.2 0.00 0.00 0.00 71 1016.0
20260505200007 10 45 1.6 3.2 0.00 0.00 0.00 71 1016.0
20260505195808 10 45 1.6 3.2 0.00 0.00 0.00 71 1016.0
20260505195608 10 45 1.6 4.8 0.00 0.00 0.00 71 1016.0
20260505195408 10 45 3.2 4.8 0.00 0.00 0.00 71 1016.0
20260505195208 10 45 3.2 4.8 0.00 0.00 0.00 71 1016.0
20260505194808 10 45 3.2 6.4 0.00 0.00 0.00 71 1016.0
20260505194408 10 45 3.2 6.4 0.00 0.00 0.00 70 1016.0
20260505194208 11 45 3.2 8.0 0.00 0.00 0.00 71 1016.0
20260505194008 11 46 3.2 8.0 0.00 0.00 0.00 70 1015.9
20260505193807 11 45 1.6 8.0 0.00 0.00 0.00 70 1016.0
20260505193607 11 46 1.6 8.0 0.00 0.00 0.00 70 1015.9
20260505193407 11 46 0.0 8.0 0.00 0.00 0.00 70 1015.9
20260505193207 11 45 0.0 4.8 0.00 0.00 0.00 70 1016.1
20260505193009 11 45 0.0 4.8 0.00 0.00 0.00 70 1016.1
20260505192807 11 45 0.0 4.8 0.00 0.00 0.00 70 1016.1
20260505192607 11 0 0.0 0.0 0.00 0.00 0.00 70 1016.1
20260505192408 11 0 0.0 0.0 0.00 0.00 0.00 70 1016.0
20260505192208 11 0 0.0 0.0 0.00 0.00 0.00 70 1016.0
20260505192008 11 0 0.0 0.0 0.00 0.00 0.00 69 1015.9
20260505191808 11 0 0.0 0.0 0.00 0.00 0.00 70 1015.8
20260505191608 11 0 0.0 0.0 0.00 0.00 0.00 69 1015.8
20260505191408 11 0 0.0 0.0 0.00 0.00 0.00 69 1015.8
20260505191208 11 0 0.0 0.0 0.00 0.00 0.00 69 1015.9
20260505190808 11 45 1.6 1.6 0.00 0.00 0.00 71 1015.6
20260505190608 11 45 1.6 3.2 0.00 0.00 0.00 71 1015.5
20260505190408 11 45 3.2 4.8 0.00 0.00 0.00 71 1015.4
20260505190208 11 45 3.2 4.8 0.00 0.00 0.00 70 1015.5
20260505190008 11 45 3.2 4.8 0.00 0.00 0.00 70 1015.5
20260505185808 11 45 3.2 4.8 0.00 0.00 0.00 70 1015.5
20260505185408 11 45 3.2 6.4 0.00 0.00 0.00 70 1015.7
20260505185008 11 45 4.8 6.4 0.00 0.00 0.00 69 1015.7
20260505184808 11 45 4.8 6.4 0.00 0.00 0.00 69 1015.7
20260505184608 11 45 4.8 6.4 0.00 0.00 0.00 69 1015.7
20260505184408 11 45 4.8 6.4 0.00 0.00 0.00 70 1015.7
20260505184208 11 45 4.8 6.4 0.00 0.00 0.00 70 1015.8
20260505184008 11 45 4.8 6.4 0.00 0.00 0.00 70 1015.7
20260505183808 11 45 4.8 6.4 0.00 0.00 0.00 71 1015.8
20260505183608 11 45 4.8 6.4 0.00 0.00 0.00 70 1015.9
20260505183408 11 45 4.8 9.7 0.00 0.00 0.00 70 1015.8
20260505183208 11 45 4.8 9.7 0.00 0.00 0.00 69 1015.8
20260505183008 11 45 4.8 9.7 0.00 0.00 0.00 69 1015.8
20260505182808 11 45 4.8 9.7 0.00 0.00 0.00 69 1015.8
20260505182608 11 45 4.8 9.7 0.00 0.00 0.00 67 1015.7
20260505182407 11 46 4.8 8.0 0.00 0.00 0.00 66 1015.8
20260505182207 11 46 6.4 9.7 0.00 0.00 0.00 65 1015.8
20260505182008 11 45 6.4 9.7 0.00 0.00 0.00 66 1015.7
20260505181808 11 46 6.4 9.7 0.00 0.00 0.00 64 1015.7
20260505181608 11 46 6.4 9.7 0.00 0.00 0.00 63 1015.7
20260505181407 12 46 6.4 9.7 0.00 0.00 0.00 64 1015.9
20260505181207 12 46 6.4 11.3 0.00 0.00 0.00 64 1015.8
20260505181008 12 45 6.4 11.3 0.00 0.00 0.00 64 1015.8
20260505180808 12 45 6.4 11.3 0.00 0.00 0.00 63 1015.8
20260505180607 12 45 6.4 11.3 0.00 0.00 0.00 64 1015.9
20260505180408 12 45 8.0 12.9 0.00 0.00 0.00 65 1015.9
20260505180207 12 45 8.0 12.9 0.00 0.00 0.00 65 1015.9
20260505175807 12 45 8.0 12.9 0.00 0.00 0.00 62 1015.9
20260505175607 12 45 6.4 14.5 0.00 0.00 0.00 62 1016.0
20260505175207 12 45 6.4 14.5 0.00 0.00 0.00 62 1015.9
20260505175007 12 45 4.8 14.5 0.00 0.00 0.00 64 1016.0
20260505174607 12 45 4.8 9.7 0.00 0.00 0.00 65 1015.9
20260505174407 12 45 4.8 9.7 0.00 0.00 0.00 66 1015.9
20260505174007 12 45 4.8 8.0 0.00 0.00 0.00 65 1016.0
20260505173807 12 46 4.8 8.0 0.00 0.00 0.00 65 1016.0
20260505173607 12 45 6.4 8.0 0.00 0.00 0.00 65 1015.9
20260505173407 12 45 6.4 9.7 0.00 0.00 0.00 66 1015.9
20260505173207 12 45 6.4 9.7 0.00 0.00 0.00 65 1015.8
20260505173008 12 45 6.4 9.7 0.00 0.00 0.00 66 1015.9
20260505172807 12 46 6.4 9.7 0.00 0.00 0.00 66 1015.9
20260505172607 12 46 8.0 9.7 0.00 0.00 0.00 67 1016.0
20260505172407 12 46 8.0 9.7 0.00 0.00 0.00 66 1016.0
20260505172207 12 46 8.0 12.9 0.00 0.00 0.00 65 1016.0
20260505172008 12 46 8.0 12.9 0.00 0.00 0.00 66 1015.9
20260505171807 12 46 8.0 14.5 0.00 0.00 0.00 66 1015.9
20260505171607 12 46 8.0 14.5 0.00 0.00 0.00 66 1016.0
20260505171408 12 46 8.0 14.5 0.00 0.00 0.00 65 1016.0
20260505171207 12 45 8.0 14.5 0.00 0.00 0.00 65 1016.0
20260505171007 12 45 9.7 14.5 0.00 0.00 0.00 65 1015.9
20260505170807 12 46 9.7 12.9 0.00 0.00 0.00 66 1016.0
20260505170607 12 45 9.7 12.9 0.00 0.00 0.00 65 1016.0
20260505170408 12 46 9.7 12.9 0.00 0.00 0.00 66 1016.0
20260505170207 12 45 9.7 12.9 0.00 0.00 0.00 66 1016.0
20260505165807 12 46 9.7 12.9 0.00 0.00 0.00 66 1016.1
20260505165607 12 46 8.0 12.9 0.00 0.00 0.00 67 1016.1
20260505165207 12 46 9.7 12.9 0.00 0.00 0.00 67 1016.2
20260505165007 12 45 9.7 11.3 0.00 0.00 0.00 67 1016.1
20260505164607 12 45 9.7 12.9 0.00 0.00 0.00 67 1016.1
20260505164407 12 45 9.7 14.5 0.00 0.00 0.00 68 1016.1
20260505164207 12 45 11.3 14.5 0.00 0.00 0.00 68 1016.2
20260505164007 12 45 9.7 16.1 0.00 0.00 0.00 67 1016.2
20260505163807 12 46 11.3 16.1 0.00 0.00 0.00 67 1016.1
20260505163608 12 46 11.3 16.1 0.00 0.00 0.00 67 1016.1
20260505163208 12 45 9.7 17.7 0.00 0.00 0.00 66 1016.0
20260505163009 12 46 9.7 17.7 0.00 0.00 0.00 65 1016.0
20260505162608 12 46 9.7 17.7 0.00 0.00 0.00 66 1016.0
20260505162208 12 46 8.0 16.1 0.00 0.00 0.00 66 1016.0
20260505162008 12 46 8.0 16.1 0.00 0.00 0.00 65 1016.1
20260505161808 12 45 8.0 16.1 0.00 0.00 0.00 65 1016.1
20260505161608 12 45 8.0 16.1 0.00 0.00 0.00 64 1016.0
20260505161408 12 45 6.4 16.1 0.00 0.00 0.00 65 1016.0
20260505161208 12 46 6.4 16.1 0.00 0.00 0.00 64 1016.1
20260505160807 12 46 6.4 14.5 0.00 0.00 0.00 64 1016.1
20260505160608 12 46 6.4 14.5 0.00 0.00 0.00 63 1016.1
20260505160208 12 46 8.0 14.5 0.00 0.00 0.00 64 1016.2